This is the latest recevied weather packets stored in our database for station/object N5ATR. If no packets are shown the sender has not sent any weather packets the latest 10 day(s).
| Time | Temp. | Humidity | Pressure | Rain* | Wind** | Luminosity | Snow |
|---|---|---|---|---|---|---|---|
| 1777994396 | 9.44° C | 59% | 1011.9 hPa | 0 mm | - | 193 W/m² | - |
| 1777994091 | 9.44° C | 61% | 1012.1 hPa | 0 mm | - | 186 W/m² | - |
| 1777993789 | 8.89° C | 62% | 1012.3 hPa | 0 mm | - | 153 W/m² | - |
| 1777993486 | 8.89° C | 62% | 1012.1 hPa | 0 mm | - | 154 W/m² | - |
| 1777993185 | 8.89° C | 62% | 1012.1 hPa | 0 mm | - | 141 W/m² | - |
| 1777992883 | 8.89° C | 60% | 1012.1 hPa | 0 mm | - | 123 W/m² | - |
| 1777992581 | 8.89° C | 61% | 1012.2 hPa | 0 mm | - | 92 W/m² | - |
| 1777992279 | 8.89° C | 62% | 1012.2 hPa | 0 mm | - | 86 W/m² | - |
| 1777991976 | 9.44° C | 62% | 1012.2 hPa | 0 mm | - | 77 W/m² | - |
| 1777991674 | 8.89° C | 62% | 1012.4 hPa | 0 mm | - | 88 W/m² | - |
| 1777991371 | 8.89° C | 62% | 1012.3 hPa | 0 mm | - | 72 W/m² | - |
| 1777991068 | 8.89° C | 61% | 1012.4 hPa | 0 mm | - | 57 W/m² | - |
| 1777990765 | 9.44° C | 60% | 1012.5 hPa | 0 mm | - | 60 W/m² | - |
| 1777990462 | 10° C | 58% | 1012.4 hPa | 0 mm | - | 69 W/m² | - |
| 1777989856 | 10.56° C | 51% | 1012.4 hPa | 0 mm | - | 52 W/m² | - |
| 1777989553 | 10.56° C | 51% | 1012.2 hPa | 0 mm | - | 60 W/m² | - |
| 1777989249 | 10.56° C | 52% | 1011.8 hPa | 0 mm | - | 60 W/m² | - |
| 1777988945 | 10.56° C | 52% | 1012.1 hPa | 0 mm | - | 49 W/m² | - |
| 1777988642 | 10.56° C | 53% | 1011.8 hPa | 0 mm | - | 42 W/m² | - |
| 1777988338 | 10.56° C | 54% | 1012.2 hPa | 0 mm | - | 27 W/m² | - |
| 1777988036 | 10.56° C | 53% | 1011.8 hPa | 0 mm | - | 34 W/m² | - |
| 1777987731 | 10.56° C | 53% | 1012.1 hPa | 0 mm | - | 38 W/m² | - |
| 1777987429 | 10° C | 52% | 1012.2 hPa | 0 mm | - | 42 W/m² | - |
| 1777987126 | 10° C | 53% | 1012.1 hPa | 0 mm | - | 35 W/m² | - |
| 1777986823 | 10° C | 53% | 1011.8 hPa | 0 mm | - | 35 W/m² | - |
* Rain latest hour (hover to see other rain measurements)
** Current wind speed in m/s (hover to see current wind gust speed)